Location: Bilsen
(53.7722°N, 9.8765°E)
Time: 11:49:48
(UTC+00:00)

Cosmos 1862 - Pass Details

Date: 18 February 2020
Orbit: 539 x 556 km, 82.5° (Epoch: 08 April)

Event Time Altitude Azimuth Distance (km) Brightness Sun altitude
Rises 04:46:14 0° 350° (N) 2,714 6.8 -16.6°
Reaches altitude 10° 04:48:25 10° 354° (N) 1,816 5.9 -16.3°
Maximum altitude 04:52:23 64° 76° (ENE) 606 3.7 -15.7°
Drops below altitude 10° 04:56:19 10° 159° (SSE) 1,800 6.2 -15.1°
Sets 04:58:28 0° 162° (SSE) 2,688 7.1 -14.8°
